Rochester, NY

3:57 AM EST on February 14, 2016 (GMT -0500)
Greater Rochester International

Weather History for KROC - September, 2012

Change the Weather History Date:

Wednesday, September 26, 2012

  Actual Average Record
Temperature  
Mean Temperature 62 °F 58 °F  
Max Temperature 69 °F 68 °F 89 °F (1900)
Min Temperature 55 °F 48 °F 34 °F (1943)
Degree Days  
Heating Degree Days 3 8  
Month to date heating degree days 96 113  
Since 1 July heating degree days 103 147  
Cooling Degree Days 0 1  
Month to date cooling degree days 62 48  
Year to date cooling degree days 797 532  
Growing Degree Days 13 (Base 50)    
Moisture  
Dew Point 55 °F    
Average Humidity 70    
Maximum Humidity 84    
Minimum Humidity 55    
Precipitation  
Precipitation T in 0.11 in 1.18 in (2005)
Month to date precipitation 4.12 2.95  
Year to date precipitation 24.61 25.55  
Snow  
Snow 0.00 in 0.00 in 0.00 in ()
Month to date snowfall 0.0 0.0  
Since 1 July snowfall 0.0 0.0  
Since 1 September snowfall 0.0 0.0  
Snow Depth 0.00 in    
Sea Level Pressure  
Sea Level Pressure 29.98 in    
Wind  
Wind Speed 7 mph (SW)    
Max Wind Speed 13 mph    
Max Gust Speed 18 mph    
Visibility 10 miles    
Events Rain    
T = Trace of Precipitation, MM = Missing Value Source: NWS Daily Summary

Daily Weather History Graph

Daily Weather History Graph

Search for Another Location

Airport or City:

Trip Planner

Search our weather history database for the weather conditions in past years. The results will help you decide how hot, cold, wet, or windy it might be!

Date:

Astronomy

Sep. 26, 2012 Rise Set
Actual Time 7:02 AM EDT 6:59 PM EDT
Civil Twilight 6:34 AM EDT 7:28 PM EDT
Nautical Twilight 6:01 AM EDT 8:01 PM EDT
Astronomical Twilight 5:27 AM EDT 8:34 PM EDT
Moon 5:02 PM EDT (9/26) 3:21 AM EDT (9/26)
Length of Visible Light 12h 53m
Length of Day
11h 57m
Waxing Gibbous, 88% of the Moon is Illuminated
Sep 26
Waxing Gibbous
Sep 29
Full
Oct 8
Last Quarter
Oct 15
New
Oct 21
First Quarter

Hourly Weather History & Observations

Time (EDT) Temp. Dew Point Humidity Pressure Visibility Wind Dir Wind Speed Gust Speed Precip Events Conditions
12:54 AM 57.9 °F 52.0 °F 81% 29.95 in 10.0 mi Calm Calm - 0.00 in Rain Light Rain
1:54 AM 59.0 °F 52.0 °F 78% 29.94 in 10.0 mi SSW 8.1 mph - 0.00 in Rain Light Rain
2:37 AM 60.8 °F 53.6 °F 77% 29.94 in 10.0 mi SSW 10.4 mph - 0.00 in   Overcast
2:54 AM 60.1 °F 54.0 °F 80% 29.94 in 10.0 mi SW 10.4 mph - 0.00 in   Overcast
3:54 AM 60.1 °F 54.0 °F 80% 29.93 in 10.0 mi SSW 8.1 mph - N/A   Overcast
4:54 AM 60.1 °F 55.0 °F 83% 29.93 in 10.0 mi SSW 9.2 mph - N/A   Overcast
5:54 AM 61.0 °F 55.0 °F 81% 29.94 in 10.0 mi SSW 6.9 mph - N/A   Overcast
6:20 AM 60.8 °F 55.4 °F 82% 29.95 in 10.0 mi SSW 6.9 mph - N/A   Overcast
6:54 AM 61.0 °F 55.0 °F 81% 29.95 in 10.0 mi SSW 6.9 mph - N/A   Overcast
7:54 AM 60.8 °F 55.4 °F 82% 29.95 in 10.0 mi SSW 4.6 mph - N/A   Overcast
8:54 AM 62.1 °F 55.9 °F 80% 29.97 in 10.0 mi SSW 6.9 mph - N/A   Overcast
9:54 AM 64.0 °F 57.0 °F 78% 29.98 in 10.0 mi SSW 5.8 mph - N/A   Overcast
10:09 AM 64.4 °F 57.2 °F 77% 29.97 in 10.0 mi SSW 9.2 mph - N/A   Overcast
10:54 AM 66.0 °F 57.9 °F 75% 29.98 in 10.0 mi SSW 10.4 mph - N/A   Overcast
11:22 AM 66.2 °F 59.0 °F 78% 29.97 in 10.0 mi South 5.8 mph - N/A   Overcast
11:54 AM 66.9 °F 59.0 °F 76% 29.98 in 10.0 mi SW 9.2 mph - N/A   Overcast
12:54 PM 66.9 °F 59.0 °F 76% 29.97 in 10.0 mi SW 8.1 mph - N/A   Overcast
1:43 PM 68.0 °F 59.0 °F 73% 29.96 in 10.0 mi SSW 9.2 mph - N/A   Overcast
1:54 PM 66.9 °F 59.0 °F 76% 29.96 in 10.0 mi South 6.9 mph - N/A   Overcast
2:29 PM 66.2 °F 59.0 °F 78% 29.96 in 10.0 mi SSW 8.1 mph - N/A   Overcast
2:54 PM 68.0 °F 60.1 °F 76% 29.95 in 10.0 mi South 5.8 mph - N/A   Overcast
3:28 PM 68.0 °F 59.0 °F 73% 29.95 in 10.0 mi SSW 8.1 mph - N/A   Overcast
3:54 PM 68.0 °F 60.1 °F 76% 29.96 in 10.0 mi WSW 10.4 mph - N/A   Overcast
4:29 PM 68.0 °F 60.8 °F 78% 29.96 in 10.0 mi WSW 8.1 mph - N/A   Overcast
4:54 PM 66.9 °F 59.0 °F 76% 29.96 in 10.0 mi West 6.9 mph - N/A   Overcast
5:21 PM 66.2 °F 60.8 °F 83% 29.97 in 10.0 mi West 5.8 mph - N/A   Overcast
5:54 PM 66.0 °F 60.1 °F 81% 29.98 in 9.0 mi North 4.6 mph - N/A   Overcast
6:54 PM 63.0 °F 57.0 °F 81% 30.01 in 5.0 mi NNW 11.5 mph - N/A   Haze
7:33 PM 62.6 °F 53.6 °F 72% 30.03 in 10.0 mi NW 9.2 mph - N/A   Overcast
7:54 PM 61.0 °F 51.1 °F 70% 30.04 in 10.0 mi NW 10.4 mph - N/A   Overcast
8:54 PM 61.0 °F 48.9 °F 64% 30.07 in 10.0 mi NW 6.9 mph - N/A   Overcast
9:00 PM 60.8 °F 48.2 °F 63% 30.07 in 10.0 mi NW 6.9 mph - N/A   Overcast
9:54 PM 60.1 °F 45.0 °F 57% 30.09 in 10.0 mi NW 5.8 mph - N/A   Overcast
10:54 PM 57.9 °F 42.1 °F 56% 30.12 in 10.0 mi NW 6.9 mph - N/A   Mostly Cloudy
11:54 PM 55.9 °F 41.0 °F 57% 30.13 in 10.0 mi Calm Calm - N/A   Mostly Cloudy